Location: Newark
(52.2090°N, 4.1550°W)
Time: 22:00:47
(UTC+00:00)

Explorer 7 - Pass Details

Date: 23 September 2019
Orbit: 485 x 680 km, 50.3° (Epoch: 15 October)

Event Time Altitude Azimuth Distance (km) Brightness Sun altitude
Rises 21:06:52 0° 201° (SSW) 2,758 - -25.6°
Reaches altitude 10° 21:09:39 10° 182° (S) 1,906 - -26.0°
Maximum altitude 21:12:35 18° 139° (SE) 1,511 - -26.3°
Drops below altitude 10° 21:15:38 10° 97° (E) 1,997 - -26.7°
Sets 21:18:38 0° 79° (E) 2,946 - -27.0°
